Weather in Sampit

Indonesia     2°31′07″S   112°54′53″E
temp.,
°C
wind,
m/s
gust,
m/s
humid.,
%
clouds,
%
prec.,
mm/h
press.,
hPa
HPBL,
m
6 march, sat
sat623:00+25ssw118588 0.0 101124
02:00+23sse119392 2.0 101023
05:00+23nw119698 1.3 100923
08:00+25n019296 1.5 1011124
11:00+32n1258100 0.0 10111094
14:00+31nne1376100 1.7 1008605
17:00+31ssw126656 1.8 1007727
20:00+25ssw299375 2.7 1009279
7 march, sun
sun723:00+24ne009769 2.6 101124
02:00+23w119884 6.4 101077
05:00+23ne1299100 4.6 100997
08:00+22ene2598100 9.5 1012263
11:00+24e2491100 0.3 1013384
14:00+27se1175100 0.3 1010629
17:00+27s1280100 0.0 1008487
20:00+24s1192100 0.0 101131
8 march, mon
mon823:00+24nw0193100 0.0 101223
02:00+23nw1594100 0.0 1011228
05:00+23nw1593100 0.1 1009260
08:00+25wnw128385 0.1 1012214
11:00+26nw137577 0.0 1012338
14:00+33wnw244957 0.0 10091900
17:00+25se278896 1.3 1008161
20:00+24wsw169698 2.7 1010163
9 march, tue
tue923:00+23wnw1196100 0.1 101224
02:00+22n129999 1.6 101088
05:00+23n1398100 0.4 1010105
08:00+23n1498100 0.4 1012185
11:00+28nnw248281 2.4 1012683
14:00+32wnw355357 3.7 10091487
17:00+28wsw1486100 1.8 1008250
20:00+24sse1195100 4.4 101125
10 march, wed
wed1023:00+23ene1298100 2.0 101284
02:00+23ne1198100 2.3 101144
05:00+22ene1198100 0.0 101024
08:00+24ne1296100 0.0 1012198
11:00+28n128299 2.4 1012532
14:00+29w137599 7.8 1008669
17:00+26ssw2594100 2.1 1008262
20:00+24sse1297100 2.5 101190